Location: Lamy Ridge Observatory
(35.5010°N, 105.8759°W)
Time: 10:32:55
(UTC-06:00)

ISS - Visible Passes

Search period start: 08 September 2024 00:00
Search period end: 18 September 2024 00:00
Orbit: 415 x 425 km, 51.6° (Epoch: 08 September)

Date Brightness Start Highest point End Pass type
(mag) Time Alt. Az. Time Alt. Az. Time Alt. Az.
08 Sep -3.9 05:14:52 50° WNW 05:15:34 70° SW 05:18:55 10° SE visible
08 Sep -1.9 20:17:56 10° S 20:19:25 16° SE 20:19:25 16° SE visible
09 Sep -0.9 04:31:14 13° ESE 04:31:14 13° ESE 04:31:42 10° ESE visible
09 Sep -1.6 06:04:20 10° WSW 06:04:45 11° SW 06:05:33 10° SW visible
09 Sep -2.9 21:06:07 10° SW 21:08:39 47° WSW 21:08:39 47° WSW visible
10 Sep -3.8 20:18:53 10° SW 20:22:10 60° SE 20:24:25 19° ENE visible
10 Sep -0.3 21:57:03 10° WNW 21:57:27 12° WNW 21:57:27 12° WNW visible
11 Sep -1.5 21:08:56 10° W 21:11:42 24° NNW 21:12:49 20° N visible
12 Sep -2.3 20:21:01 10° WSW 20:24:10 38° NW 20:27:20 10° NNE visible
13 Sep -3.4 19:33:19 10° SW 19:36:38 69° NW 19:39:58 10° NE visible
13 Sep -0.7 21:12:45 10° NW 21:13:58 11° NNW 21:15:12 10° N visible
14 Sep -0.9 20:24:01 10° WNW 20:26:11 16° NNW 20:28:23 10° NNE visible
15 Sep -1.5 19:35:39 10° W 19:38:25 24° NNW 19:41:12 10° NNE visible
17 Sep -0.8 19:39:00 10° NW 19:40:12 11° NNW 19:41:25 10° N visible
